{"data":{"norad_id":39375,"intl_designator":"2013-062A","name":"RADUGA-1M 3","alt_names":[],"object_type":"PAYLOAD","status":"ACTIVE","operator":null,"country":"CIS","launch_date":"2013-11-11","launch_site_code":"TYMSC","launch_vehicle":null,"mission":null,"orbit_class":"UNKNOWN","rcs_meters":63.0957,"size_class":null,"mass_kg":null,"dimensions":null,"purposes":["comms"],"wikipedia_slug":null,"has_3d_model":false,"image_url":null,"decayed_at":null,"tle_current":{"epoch":"2026-05-25T00:29:15.836352Z","epoch_age_seconds":80055,"freshness":"FRESH","line1":"1 39375U 13062A   26145.02032218  .00000151  00000+0  00000+0 0  9990","line2":"2 39375   5.9018  72.6442 0001428 267.9368 304.3195  1.00271515 45874","mean_motion":1.00271515,"eccentricity":0.0001428,"inclination_deg":5.9018,"raan_deg":72.6442,"arg_perigee_deg":267.9368,"mean_anomaly_deg":304.3195,"bstar":0,"rev_number":4587,"period_min":1436.1007709916,"perigee_km":35780.649517629,"apogee_km":35792.691786695,"semimajor_km":42164.807652162,"source":"CELESTRAK","updated_at":"2026-05-25T13:38:13.946477Z"}}}